Time,TemperatureF,DewpointF,PressureIn,WindDirection,WindDirectionDegrees,WindSpeedMPH,WindSpeedGustMPH,Humidity,HourlyPrecipIn,Conditions,Clouds,dailyrainin,SoftwareType,DateUTC
2013-04-16 00:11:00,47.8,48.0,30.16,ENE,72,5.0,10.0,99,0.00,,,0.09,weatherlink.com 1.10,2013-04-16 04:11:00,
2013-04-16 00:26:00,47.9,48.0,30.16,ENE,74,5.0,7.0,99,0.00,,,0.09,weatherlink.com 1.10,2013-04-16 04:26:00,
2013-04-16 00:41:00,48.1,48.0,30.16,ENE,68,5.0,8.0,99,0.00,,,0.09,weatherlink.com 1.10,2013-04-16 04:41:00,
2013-04-16 00:56:00,48.2,48.0,30.15,ENE,66,4.0,9.0,99,0.00,,,0.09,weatherlink.com 1.10,2013-04-16 04:56:00,
2013-04-16 01:11:00,48.3,48.0,30.16,ENE,62,4.0,7.0,99,0.00,,,0.09,weatherlink.com 1.10,2013-04-16 05:11:00,
2013-04-16 01:26:00,48.3,48.0,30.16,ENE,72,3.0,7.0,99,0.00,,,0.00,weatherlink.com 1.10,2013-04-16 05:26:00,
2013-04-16 01:41:00,48.3,48.0,30.15,ENE,67,4.0,7.0,99,0.00,,,0.00,weatherlink.com 1.10,2013-04-16 05:41:00,
2013-04-16 01:56:00,48.3,48.0,30.15,ENE,59,7.0,9.0,99,0.00,,,0.00,weatherlink.com 1.10,2013-04-16 05:56:00,
2013-04-16 02:11:00,48.4,48.0,30.15,ENE,59,4.0,10.0,99,0.00,,,0.00,weatherlink.com 1.10,2013-04-16 06:11:00,
2013-04-16 02:26:00,48.3,48.0,30.15,ENE,64,4.0,9.0,99,0.00,,,0.00,weatherlink.com 1.10,2013-04-16 06:26:00,
2013-04-16 02:41:00,48.3,48.0,30.14,ENE,59,3.0,9.0,99,0.00,,,0.00,weatherlink.com 1.10,2013-04-16 06:41:00,
2013-04-16 02:56:00,48.2,48.0,30.14,ENE,65,4.0,9.0,99,0.00,,,0.00,weatherlink.com 1.10,2013-04-16 06:56:00,
2013-04-16 03:11:00,48.1,48.0,30.14,NE,46,6.0,8.0,99,0.00,,,0.00,weatherlink.com 1.10,2013-04-16 07:11:00,
2013-04-16 03:26:00,48.1,48.0,30.14,East,89,7.0,8.0,99,0.00,,,0.00,weatherlink.com 1.10,2013-04-16 07:26:00,
2013-04-16 03:41:00,48.0,48.0,30.14,ENE,61,7.0,8.0,99,0.00,,,0.00,weatherlink.com 1.10,2013-04-16 07:41:00,
2013-04-16 03:56:00,47.8,48.0,30.14,ENE,69,5.0,8.0,99,0.00,,,0.00,weatherlink.com 1.10,2013-04-16 07:56:00,
2013-04-16 04:11:00,47.8,48.0,30.14,ENE,63,5.0,8.0,99,0.00,,,0.00,weatherlink.com 1.10,2013-04-16 08:11:00,
2013-04-16 04:26:00,47.8,48.0,30.13,ENE,68,5.0,8.0,99,0.00,,,0.00,weatherlink.com 1.10,2013-04-16 08:26:00,
2013-04-16 04:41:00,47.9,48.0,30.13,ENE,77,4.0,11.0,99,0.00,,,0.00,weatherlink.com 1.10,2013-04-16 08:41:00,
2013-04-16 04:56:00,47.9,48.0,30.14,NE,50,4.0,9.0,99,0.00,,,0.00,weatherlink.com 1.10,2013-04-16 08:56:00,
2013-04-16 05:12:00,47.9,48.0,30.13,East,80,7.0,7.0,99,0.00,,,0.00,weatherlink.com 1.10,2013-04-16 09:12:00,
2013-04-16 05:27:00,47.7,48.0,30.14,NE,54,5.0,9.0,99,0.00,,,0.00,weatherlink.com 1.10,2013-04-16 09:27:00,
2013-04-16 05:42:00,47.7,48.0,30.14,ENE,76,7.0,8.0,99,0.00,,,0.00,weatherlink.com 1.10,2013-04-16 09:42:00,
2013-04-16 05:57:00,47.5,47.0,30.14,ENE,58,4.0,11.0,99,0.01,,,0.01,weatherlink.com 1.10,2013-04-16 09:57:00,
2013-04-16 06:12:00,47.7,48.0,30.14,ENE,67,5.0,12.0,99,0.01,,,0.01,weatherlink.com 1.10,2013-04-16 10:12:00,
2013-04-16 06:27:00,47.8,48.0,30.14,ENE,69,8.0,12.0,99,0.01,,,0.01,weatherlink.com 1.10,2013-04-16 10:27:00,
2013-04-16 06:42:00,47.9,48.0,30.15,ENE,61,7.0,14.0,99,0.01,,,0.01,weatherlink.com 1.10,2013-04-16 10:42:00,
2013-04-16 06:57:00,47.7,48.0,30.16,NE,53,4.0,9.0,99,0.00,,,0.01,weatherlink.com 1.10,2013-04-16 10:57:00,
2013-04-16 07:12:00,47.6,47.0,30.16,ENE,61,5.0,9.0,99,0.00,,,0.01,weatherlink.com 1.10,2013-04-16 11:12:00,
2013-04-16 07:27:00,47.5,47.0,30.17,ENE,71,3.0,9.0,99,0.00,,,0.01,weatherlink.com 1.10,2013-04-16 11:27:00,
2013-04-16 07:42:00,47.6,47.0,30.17,ENE,70,5.0,10.0,99,0.00,,,0.01,weatherlink.com 1.10,2013-04-16 11:42:00,
2013-04-16 07:57:00,47.7,48.0,30.18,ENE,67,5.0,8.0,99,0.00,,,0.01,weatherlink.com 1.10,2013-04-16 11:57:00,
2013-04-16 08:12:00,47.6,47.0,30.19,ENE,64,5.0,8.0,99,0.00,,,0.01,weatherlink.com 1.10,2013-04-16 12:12:00,
2013-04-16 08:27:00,47.7,48.0,30.20,East,85,6.0,8.0,99,0.00,,,0.01,weatherlink.com 1.10,2013-04-16 12:27:00,
2013-04-16 08:42:00,47.6,47.0,30.21,ENE,67,4.0,10.0,99,0.00,,,0.01,weatherlink.com 1.10,2013-04-16 12:42:00,
2013-04-16 08:57:00,48.1,48.0,30.21,ENE,67,3.0,5.0,99,0.00,,,0.01,weatherlink.com 1.10,2013-04-16 12:57:00,
2013-04-16 09:12:00,48.8,49.0,30.22,NE,51,5.0,8.0,99,0.00,,,0.01,weatherlink.com 1.10,2013-04-16 13:12:00,
2013-04-16 09:27:00,49.4,49.0,30.22,ENE,63,2.0,5.0,99,0.00,,,0.01,weatherlink.com 1.10,2013-04-16 13:27:00,
2013-04-16 09:42:00,49.8,50.0,30.22,East,83,5.0,7.0,99,0.00,,,0.01,weatherlink.com 1.10,2013-04-16 13:42:00,
2013-04-16 09:57:00,50.7,51.0,30.22,NE,55,2.0,5.0,99,0.00,,,0.01,weatherlink.com 1.10,2013-04-16 13:57:00,
2013-04-16 10:12:00,51.8,52.0,30.22,NE,54,2.0,5.0,99,0.00,,,0.01,weatherlink.com 1.10,2013-04-16 14:12:00,
2013-04-16 10:27:00,52.2,52.0,30.23,ENE,63,1.0,4.0,99,0.00,,,0.01,weatherlink.com 1.10,2013-04-16 14:27:00,
2013-04-16 10:42:00,53.0,53.0,30.23,East,90,3.0,5.0,99,0.00,,,0.01,weatherlink.com 1.10,2013-04-16 14:42:00,
2013-04-16 10:57:00,53.8,54.0,30.24,East,92,1.0,9.0,99,0.00,,,0.01,weatherlink.com 1.10,2013-04-16 14:57:00,
2013-04-16 11:12:00,54.4,54.0,30.24,WNW,286,4.0,7.0,98,0.00,,,0.01,weatherlink.com 1.10,2013-04-16 15:12:00,
2013-04-16 11:27:00,56.8,55.0,30.24,SW,227,5.0,10.0,94,0.00,,,0.01,weatherlink.com 1.10,2013-04-16 15:27:00,
2013-04-16 11:43:00,57.8,53.0,30.24,SW,226,2.0,7.0,83,0.00,,,0.01,weatherlink.com 1.10,2013-04-16 15:43:00,
2013-04-16 11:58:00,59.7,50.0,30.25,West,265,4.0,8.0,71,0.00,,,0.01,weatherlink.com 1.10,2013-04-16 15:58:00,
2013-04-16 12:13:00,60.1,49.0,30.24,NNE,25,5.0,13.0,68,0.00,,,0.01,weatherlink.com 1.10,2013-04-16 16:13:00,
2013-04-16 12:28:00,61.1,50.0,30.23,NW,322,1.0,6.0,68,0.00,,,0.01,weatherlink.com 1.10,2013-04-16 16:28:00,
2013-04-16 12:43:00,62.1,50.0,30.24,NW,319,3.0,7.0,64,0.00,,,0.01,weatherlink.com 1.10,2013-04-16 16:43:00,
2013-04-16 12:58:00,62.2,48.0,30.23,West,261,2.0,10.0,61,0.00,,,0.01,weatherlink.com 1.10,2013-04-16 16:58:00,
2013-04-16 13:13:00,62.9,50.0,30.23,SW,236,4.0,5.0,62,0.00,,,0.01,weatherlink.com 1.10,2013-04-16 17:13:00,
2013-04-16 13:28:00,63.0,49.0,30.22,NNW,328,4.0,7.0,60,0.00,,,0.01,weatherlink.com 1.10,2013-04-16 17:28:00,
2013-04-16 13:43:00,62.8,50.0,30.21,West,260,1.0,9.0,64,0.00,,,0.01,weatherlink.com 1.10,2013-04-16 17:43:00,
2013-04-16 13:58:00,62.7,49.0,30.21,SSE,150,2.0,7.0,62,0.00,,,0.01,weatherlink.com 1.10,2013-04-16 17:58:00,
2013-04-16 14:13:00,62.5,50.0,30.20,East,80,1.0,7.0,63,0.00,,,0.01,weatherlink.com 1.10,2013-04-16 18:13:00,
2013-04-16 14:43:00,61.4,54.0,30.19,ENE,74,2.0,4.0,76,0.00,,,0.01,weatherlink.com 1.10,2013-04-16 18:43:00,
2013-04-16 14:58:00,62.5,55.0,30.19,ENE,75,2.0,7.0,75,0.00,,,0.01,weatherlink.com 1.10,2013-04-16 18:58:00,
2013-04-16 15:13:00,62.8,55.0,30.18,ENE,77,4.0,8.0,75,0.00,,,0.01,weatherlink.com 1.10,2013-04-16 19:13:00,
2013-04-16 15:28:00,62.0,55.0,30.17,ENE,67,3.0,8.0,77,0.00,,,0.01,weatherlink.com 1.10,2013-04-16 19:28:00,
2013-04-16 15:43:00,63.7,55.0,30.17,ENE,65,2.0,7.0,73,0.00,,,0.01,weatherlink.com 1.10,2013-04-16 19:43:00,
2013-04-16 15:58:00,62.0,54.0,30.16,NE,47,2.0,5.0,75,0.00,,,0.01,weatherlink.com 1.10,2013-04-16 19:58:00,
2013-04-16 16:13:00,60.7,53.0,30.16,NE,50,2.0,5.0,77,0.00,,,0.01,weatherlink.com 1.10,2013-04-16 20:13:00,
2013-04-16 16:28:00,61.8,54.0,30.16,NE,36,4.0,7.0,76,0.00,,,0.01,weatherlink.com 1.10,2013-04-16 20:28:00,
2013-04-16 16:43:00,63.8,54.0,30.15,NW,323,1.0,6.0,71,0.00,,,0.01,weatherlink.com 1.10,2013-04-16 20:43:00,
2013-04-16 16:58:00,63.9,55.0,30.15,ENE,69,1.0,8.0,72,0.00,,,0.01,weatherlink.com 1.10,2013-04-16 20:58:00,
2013-04-16 17:13:00,62.9,54.0,30.15,NE,40,4.0,9.0,73,0.00,,,0.01,weatherlink.com 1.10,2013-04-16 21:13:00,
2013-04-16 17:28:00,61.8,54.0,30.15,NNE,27,3.0,8.0,75,0.00,,,0.01,weatherlink.com 1.10,2013-04-16 21:28:00,
2013-04-16 17:43:00,62.5,54.0,30.14,ENE,63,2.0,10.0,73,0.00,,,0.01,weatherlink.com 1.10,2013-04-16 21:43:00,
2013-04-16 17:58:00,62.5,54.0,30.15,East,86,6.0,9.0,74,0.00,,,0.01,weatherlink.com 1.10,2013-04-16 21:58:00,
2013-04-16 18:13:00,62.8,54.0,30.14,NE,54,2.0,8.0,72,0.00,,,0.01,weatherlink.com 1.10,2013-04-16 22:13:00,
2013-04-16 18:28:00,61.1,53.0,30.14,ESE,113,7.0,8.0,75,0.00,,,0.01,weatherlink.com 1.10,2013-04-16 22:28:00,
2013-04-16 18:43:00,59.9,53.0,30.14,NE,54,5.0,8.0,78,0.00,,,0.01,weatherlink.com 1.10,2013-04-16 22:43:00,
2013-04-16 18:58:00,58.7,53.0,30.14,NE,54,3.0,10.0,80,0.00,,,0.01,weatherlink.com 1.10,2013-04-16 22:58:00,
2013-04-16 19:13:00,58.2,52.0,30.14,ENE,69,3.0,7.0,81,0.00,,,0.01,weatherlink.com 1.10,2013-04-16 23:13:00,
2013-04-16 19:28:00,57.6,53.0,30.14,ENE,61,5.0,7.0,83,0.00,,,0.01,weatherlink.com 1.10,2013-04-16 23:28:00,
2013-04-16 19:43:00,56.9,52.0,30.13,NE,56,3.0,7.0,84,0.00,,,0.01,weatherlink.com 1.10,2013-04-16 23:43:00,
2013-04-16 19:58:00,56.2,52.0,30.14,ENE,69,4.0,8.0,85,0.00,,,0.01,weatherlink.com 1.10,2013-04-16 23:58:00,
2013-04-16 20:13:00,55.8,52.0,30.14,ENE,67,4.0,6.0,86,0.00,,,0.01,weatherlink.com 1.10,2013-04-17 00:13:00,
2013-04-16 20:28:00,55.2,51.0,30.14,ENE,75,4.0,7.0,87,0.00,,,0.01,weatherlink.com 1.10,2013-04-17 00:28:00,
2013-04-16 20:43:00,54.6,52.0,30.14,ENE,71,4.0,7.0,89,0.00,,,0.01,weatherlink.com 1.10,2013-04-17 00:43:00,
2013-04-16 20:58:00,54.0,51.0,30.15,ENE,67,4.0,9.0,90,0.00,,,0.01,weatherlink.com 1.10,2013-04-17 00:58:00,
2013-04-16 21:13:00,53.6,51.0,30.15,ENE,63,4.0,4.0,90,0.00,,,0.01,weatherlink.com 1.10,2013-04-17 01:13:00,
2013-04-16 21:28:00,53.3,51.0,30.16,ENE,74,4.0,6.0,91,0.00,,,0.01,weatherlink.com 1.10,2013-04-17 01:28:00,
2013-04-16 21:43:00,53.0,51.0,30.16,ENE,71,3.0,5.0,91,0.00,,,0.01,weatherlink.com 1.10,2013-04-17 01:43:00,
2013-04-16 21:58:00,52.5,50.0,30.17,ENE,65,3.0,4.0,92,0.00,,,0.01,weatherlink.com 1.10,2013-04-17 01:58:00,
2013-04-16 22:13:00,52.3,50.0,30.17,NE,53,4.0,7.0,93,0.00,,,0.01,weatherlink.com 1.10,2013-04-17 02:13:00,
2013-04-16 22:28:00,52.2,50.0,30.16,ENE,65,4.0,5.0,93,0.00,,,0.01,weatherlink.com 1.10,2013-04-17 02:28:00,
2013-04-16 22:43:00,51.9,50.0,30.16,ENE,67,3.0,4.0,93,0.00,,,0.01,weatherlink.com 1.10,2013-04-17 02:43:00,
2013-04-16 22:58:00,51.9,50.0,30.16,ENE,71,4.0,5.0,93,0.00,,,0.01,weatherlink.com 1.10,2013-04-17 02:58:00,
2013-04-16 23:13:00,52.0,50.0,30.16,ENE,65,3.0,4.0,94,0.00,,,0.01,weatherlink.com 1.10,2013-04-17 03:13:00,
2013-04-16 23:28:00,52.3,51.0,30.16,ENE,67,3.0,5.0,94,0.00,,,0.01,weatherlink.com 1.10,2013-04-17 03:28:00,
2013-04-16 23:43:00,52.4,51.0,30.16,ENE,72,4.0,5.0,93,0.00,,,0.01,weatherlink.com 1.10,2013-04-17 03:43:00,
2013-04-16 23:58:00,52.2,51.0,30.16,ENE,71,3.0,5.0,94,0.00,,,0.01,weatherlink.com 1.10,2013-04-17 03:58:00,